"FRM_AIS_EDR_2012.DAT           ",2005-08-09T02:46:36.53 ,"1/0071635591.24632",    0,    0,  274896,"AIS","B1","B1","B0","B0","PISd",0,0,0,0,"B1", 0,15,   0, 0,    0,"AIS","N/A    ","OK ","OK ",    001178.451,    -056.629,    0063.024,    0015.523,    0049.166
"FRM_AIS_EDR_2012.DAT           ",2005-08-09T02:46:44.07 ,"1/0071635598.60231",    0,    1,  274896,"AIS","B1","B1","B0","B0","PISd",0,0,0,0,"B1", 0,15,   0, 0,    0,"AIS","N/A    ","OK ","OK ",    001168.063,    -056.303,    0063.057,    0015.527,    0049.103
"FRM_AIS_EDR_2012.DAT           ",2005-08-09T02:46:51.61 ,"1/0071635606.30294",    0,    2,  274896,"AIS","B1","B1","B0","B0","PISd",0,0,0,0,"B1", 0,15,   0, 0,    0,"AIS","N/A    ","OK ","OK ",    001157.705,    -055.975,    0063.089,    0015.532,    0049.040
"FRM_AIS_EDR_2012.DAT           ",2005-08-09T02:46:59.16 ,"1/0071635614.00358",    0,    3,  274896,"AIS","B1","B1","B0","B0","PISd",0,0,0,0,"B1", 0,15,   0, 0,    0,"AIS","N/A    ","OK ","OK ",    001147.380,    -055.646,    0063.120,    0015.536,    0048.980
"FRM_AIS_EDR_2012.DAT           ",2005-08-09T02:47:06.70 ,"1/0071635621.35957",    0,    4,  274896,"AIS","B1","B1","B0","B0","PISd",0,0,0,0,"B1", 0,15,   0, 0,    0,"AIS","N/A    ","OK ","OK ",    001137.087,    -055.315,    0063.150,    0015.540,    0048.920
"FRM_AIS_EDR_2012.DAT           ",2005-08-09T02:47:14.24 ,"1/0071635629.06020",    0,    5,  274896,"AIS","B1","B1","B0","B0","PISd",0,0,0,0,"B1", 0,15,   0, 0,    0,"AIS","N/A    ","OK ","OK ",    001126.826,    -054.983,    0063.180,    0015.544,    0048.862
"FRM_AIS_EDR_2012.DAT           ",2005-08-09T02:47:21.79 ,"1/0071635636.41620",    0,    6,  274896,"AIS","B1","B1","B0","B0","PISd",0,0,0,0,"B1", 0,15,   0, 0,    0,"AIS","N/A    ","OK ","OK ",    001116.599,    -054.650,    0063.209,    0015.548,    0048.806
"FRM_AIS_EDR_2012.DAT           ",2005-08-09T02:47:29.33 ,"1/0071635644.11683",    0,    7,  274896,"AIS","B1","B1","B0","B0","PISd",0,0,0,0,"B1", 0,15,   0, 0,    0,"AIS","N/A    ","OK ","OK ",    001106.406,    -054.314,    0063.237,    0015.552,    0048.750
"FRM_AIS_EDR_2012.DAT           ",2005-08-09T02:47:36.87 ,"1/0071635651.47282",    0,    8,  274896,"AIS","B1","B1","B0","B0","PISd",0,0,0,0,"B1", 0,15,   0, 0,    0,"AIS","N/A    ","OK ","OK ",    001096.247,    -053.978,    0063.265,    0015.556,    0048.696
"FRM_AIS_EDR_2012.DAT           ",2005-08-09T02:47:44.42 ,"1/0071635659.17346",    0,    9,  274896,"AIS","B1","B1","B0","B0","PISd",0,0,0,0,"B1", 0,15,   0, 0,    0,"AIS","N/A    ","OK ","OK ",    001086.122,    -053.639,    0063.291,    0015.559,    0048.644
"FRM_AIS_EDR_2012.DAT           ",2005-08-09T02:47:51.96 ,"1/0071635666.52945",    0,   10,  274896,"AIS","B1","B1","B0","B0","PISd",0,0,0,0,"B1", 0,15,   0, 0,    0,"AIS","N/A    ","OK ","OK ",    001076.033,    -053.300,    0063.318,    0015.563,    0048.593
"FRM_AIS_EDR_2012.DAT           ",2005-08-09T02:47:59.50 ,"1/0071635674.23008",    0,   11,  274896,"AIS","B1","B1","B0","B0","PISd",0,0,0,0,"B1", 0,15,   0, 0,    0,"AIS","N/A    ","OK ","OK ",    001065.980,    -052.958,    0063.343,    0015.567,    0048.544
"FRM_AIS_EDR_2012.DAT           ",2005-08-09T02:48:07.04 ,"1/0071635681.58608",    0,   12,  274896,"AIS","B1","B1","B0","B0","PISd",0,0,0,0,"B1", 0,15,   0, 0,    0,"AIS","N/A    ","OK ","OK ",    001055.963,    -052.615,    0063.368,    0015.571,    0048.496
"FRM_AIS_EDR_2012.DAT           ",2005-08-09T02:48:14.59 ,"1/0071635689.28671",    0,   13,  274896,"AIS","B1","B1","B0","B0","PISd",0,0,0,0,"B1", 0,15,   0, 0,    0,"AIS","N/A    ","OK ","OK ",    001045.983,    -052.271,    0063.392,    0015.574,    0048.450
"FRM_AIS_EDR_2012.DAT           ",2005-08-09T02:48:22.13 ,"1/0071635696.64270",    0,   14,  274896,"AIS","B1","B1","B0","B0","PISd",0,0,0,0,"B1", 0,15,   0, 0,    0,"AIS","N/A    ","OK ","OK ",    001036.041,    -051.925,    0063.416,    0015.578,    0048.405
"FRM_AIS_EDR_2012.DAT           ",2005-08-09T02:48:29.67 ,"1/0071635704.34334",    0,   15,  274896,"AIS","B1","B1","B0","B0","PISd",0,0,0,0,"B1", 0,15,   0, 0,    0,"AIS","N/A    ","OK ","OK ",    001026.137,    -051.577,    0063.439,    0015.582,    0048.362
"FRM_AIS_EDR_2012.DAT           ",2005-08-09T02:48:37.22 ,"1/0071635712.04397",    0,   16,  274896,"AIS","B1","B1","B0","B0","PISd",0,0,0,0,"B1", 0,15,   0, 0,    0,"AIS","N/A    ","OK ","OK ",    001016.271,    -051.228,    0063.462,    0015.585,    0048.321
"FRM_AIS_EDR_2012.DAT           ",2005-08-09T02:48:44.76 ,"1/0071635719.39996",    0,   17,  274896,"AIS","B1","B1","B0","B0","PISd",0,0,0,0,"B1", 0,15,   0, 0,    0,"AIS","N/A    ","OK ","OK ",    001006.444,    -050.877,    0063.484,    0015.589,    0048.281
"FRM_AIS_EDR_2012.DAT           ",2005-08-09T02:48:52.30 ,"1/0071635727.10059",    0,   18,  274896,"AIS","B1","B1","B0","B0","PISd",0,0,0,0,"B1", 0,15,   0, 0,    0,"AIS","N/A    ","OK ","OK ",    000996.657,    -050.525,    0063.505,    0015.592,    0048.243
"FRM_AIS_EDR_2012.DAT           ",2005-08-09T02:48:59.85 ,"1/0071635734.45659",    0,   19,  274896,"AIS","B1","B1","B0","B0","PISd",0,0,0,0,"B1", 0,15,   0, 0,    0,"AIS","N/A    ","OK ","OK ",    000986.910,    -050.171,    0063.526,    0015.596,    0048.207
"FRM_AIS_EDR_2012.DAT           ",2005-08-09T02:49:07.39 ,"1/0071635742.15722",    0,   20,  274896,"AIS","B1","B1","B0","B0","PISd",0,0,0,0,"B1", 0,15,   0, 0,    0,"AIS","N/A    ","OK ","OK ",    000977.204,    -049.815,    0063.546,    0015.599,    0048.173
"FRM_AIS_EDR_2012.DAT           ",2005-08-09T02:49:14.93 ,"1/0071635749.51321",    0,   21,  274896,"AIS","B1","B1","B0","B0","PISd",0,0,0,0,"B1", 0,15,   0, 0,    0,"AIS","N/A    ","OK ","OK ",    000967.539,    -049.458,    0063.566,    0015.602,    0048.140
"FRM_AIS_EDR_2012.DAT           ",2005-08-09T02:49:22.48 ,"1/0071635757.21385",    0,   22,  274896,"AIS","B1","B1","B0","B0","PISd",0,0,0,0,"B1", 0,15,   0, 0,    0,"AIS","N/A    ","OK ","OK ",    000957.916,    -049.099,    0063.585,    0015.606,    0048.109
"FRM_AIS_EDR_2012.DAT           ",2005-08-09T02:49:30.02 ,"1/0071635764.56984",    0,   23,  274896,"AIS","B1","B1","B0","B0","PISd",0,0,0,0,"B1", 0,15,   0, 0,    0,"AIS","N/A    ","OK ","OK ",    000948.336,    -048.739,    0063.604,    0015.609,    0048.081
"FRM_AIS_EDR_2012.DAT           ",2005-08-09T02:49:37.56 ,"1/0071635772.27047",    0,   24,  274896,"AIS","B1","B1","B0","B0","PISd",0,0,0,0,"B1", 0,15,   0, 0,    0,"AIS","N/A    ","OK ","OK ",    000938.798,    -048.377,    0063.622,    0015.612,    0048.054
"FRM_AIS_EDR_2012.DAT           ",2005-08-09T02:49:45.11 ,"1/0071635779.62647",    0,   25,  274896,"AIS","B1","B1","B0","B0","PISd",0,0,0,0,"B1", 0,15,   0, 0,    0,"AIS","N/A    ","OK ","OK ",    000929.305,    -048.014,    0063.640,    0015.615,    0048.029
"FRM_AIS_EDR_2012.DAT           ",2005-08-09T02:49:52.65 ,"1/0071635787.32710",    0,   26,  274896,"AIS","B1","B1","B0","B0","PISd",0,0,0,0,"B1", 0,15,   0, 0,    0,"AIS","N/A    ","OK ","OK ",    000919.855,    -047.649,    0063.657,    0015.619,    0048.006
"FRM_AIS_EDR_2012.DAT           ",2005-08-09T02:50:00.19 ,"1/0071635795.02773",    0,   27,  274896,"AIS","B1","B1","B0","B0","PISd",0,0,0,0,"B1", 0,15,   0, 0,    0,"AIS","N/A    ","OK ","OK ",    000910.451,    -047.282,    0063.674,    0015.622,    0047.985
"FRM_AIS_EDR_2012.DAT           ",2005-08-09T02:50:07.74 ,"1/0071635802.38373",    0,   28,  274896,"AIS","B1","B1","B0","B0","PISd",0,0,0,0,"B1", 0,15,   0, 0,    0,"AIS","N/A    ","OK ","OK ",    000901.092,    -046.914,    0063.691,    0015.625,    0047.966
"FRM_AIS_EDR_2012.DAT           ",2005-08-09T02:50:15.28 ,"1/0071635810.08436",    0,   29,  274896,"AIS","B1","B1","B0","B0","PISd",0,0,0,0,"B1", 0,15,   0, 0,    0,"AIS","N/A    ","OK ","OK ",    000891.779,    -046.544,    0063.707,    0015.628,    0047.949
"FRM_AIS_EDR_2012.DAT           ",2005-08-09T02:50:22.82 ,"1/0071635817.44035",    0,   30,  274896,"AIS","B1","B1","B0","B0","PISd",0,0,0,0,"B1", 0,15,   0, 0,    0,"AIS","N/A    ","OK ","OK ",    000882.512,    -046.172,    0063.722,    0015.631,    0047.934
"FRM_AIS_EDR_2012.DAT           ",2005-08-09T02:50:30.37 ,"1/0071635825.14099",    0,   31,  274896,"AIS","B1","B1","B0","B0","PISd",0,0,0,0,"B1", 0,15,   0, 0,    0,"AIS","N/A    ","OK ","OK ",    000873.293,    -045.799,    0063.737,    0015.634,    0047.922
"FRM_AIS_EDR_2012.DAT           ",2005-08-09T02:50:37.91 ,"1/0071635832.49698",    0,   32,  274896,"AIS","B1","B1","B0","B0","PISd",0,0,0,0,"B1", 0,15,   0, 0,    0,"AIS","N/A    ","OK ","OK ",    000864.122,    -045.425,    0063.752,    0015.637,    0047.911
"FRM_AIS_EDR_2012.DAT           ",2005-08-09T02:50:45.45 ,"1/0071635840.19761",    0,   33,  274896,"AIS","B1","B1","B0","B0","PISd",0,0,0,0,"B1", 0,15,   0, 0,    0,"AIS","N/A    ","OK ","OK ",    000854.999,    -045.048,    0063.766,    0015.640,    0047.903
"FRM_AIS_EDR_2012.DAT           ",2005-08-09T02:50:53.00 ,"1/0071635847.55361",    0,   34,  274896,"AIS","B1","B1","B0","B0","PISd",0,0,0,0,"B1", 0,15,   0, 0,    0,"AIS","N/A    ","OK ","OK ",    000845.925,    -044.670,    0063.780,    0015.643,    0047.897
"FRM_AIS_EDR_2012.DAT           ",2005-08-09T02:51:00.54 ,"1/0071635855.25424",    0,   35,  274896,"AIS","B1","B1","B0","B0","PISd",0,0,0,0,"B1", 0,15,   0, 0,    0,"AIS","N/A    ","OK ","OK ",    000836.902,    -044.291,    0063.794,    0015.646,    0047.893
"FRM_AIS_EDR_2012.DAT           ",2005-08-09T02:51:08.08 ,"1/0071635862.61023",    0,   36,  274896,"AIS","B1","B1","B0","B0","PISd",0,0,0,0,"B1", 0,15,   0, 0,    0,"AIS","N/A    ","OK ","OK ",    000827.928,    -043.909,    0063.807,    0015.649,    0047.892
"FRM_AIS_EDR_2012.DAT           ",2005-08-09T02:51:15.62 ,"1/0071635870.31087",    0,   37,  274896,"AIS","B1","B1","B0","B0","PISd",0,0,0,0,"B1", 0,15,   0, 0,    0,"AIS","N/A    ","OK ","OK ",    000819.006,    -043.527,    0063.819,    0015.652,    0047.893
"FRM_AIS_EDR_2012.DAT           ",2005-08-09T02:51:23.17 ,"1/0071635878.01150",    0,   38,  274896,"AIS","B1","B1","B0","B0","PISd",0,0,0,0,"B1", 0,15,   0, 0,    0,"AIS","N/A    ","OK ","OK ",    000810.135,    -043.142,    0063.832,    0015.655,    0047.896
"FRM_AIS_EDR_2012.DAT           ",2005-08-09T02:51:30.71 ,"1/0071635885.36749",    0,   39,  274896,"AIS","B1","B1","B0","B0","PISd",0,0,0,0,"B1", 0,15,   0, 0,    0,"AIS","N/A    ","OK ","OK ",    000801.316,    -042.756,    0063.844,    0015.658,    0047.901
"FRM_AIS_EDR_2012.DAT           ",2005-08-09T02:51:38.25 ,"1/0071635893.06813",    0,   40,  274896,"AIS","B1","B1","B0","B0","PISd",0,0,0,0,"B1", 0,15,   0, 0,    0,"AIS","N/A    ","OK ","OK ",    000792.550,    -042.368,    0063.855,    0015.660,    0047.909
"FRM_AIS_EDR_2012.DAT           ",2005-08-09T02:51:45.80 ,"1/0071635900.42412",    0,   41,  274896,"AIS","B1","B1","B0","B0","PISd",0,0,0,0,"B1", 0,15,   0, 0,    0,"AIS","N/A    ","OK ","OK ",    000783.838,    -041.979,    0063.867,    0015.663,    0047.920
"FRM_AIS_EDR_2012.DAT           ",2005-08-09T02:51:53.34 ,"1/0071635908.12475",    0,   42,  274896,"AIS","B1","B1","B0","B0","PISd",0,0,0,0,"B1", 0,15,   0, 0,    0,"AIS","N/A    ","OK ","OK ",    000775.180,    -041.588,    0063.878,    0015.666,    0047.933
"FRM_AIS_EDR_2012.DAT           ",2005-08-09T02:52:00.88 ,"1/0071635915.48074",    0,   43,  274896,"AIS","B1","B1","B0","B0","PISd",0,0,0,0,"B1", 0,15,   0, 0,    0,"AIS","N/A    ","OK ","OK ",    000766.577,    -041.196,    0063.888,    0015.669,    0047.948
"FRM_AIS_EDR_2012.DAT           ",2005-08-09T02:52:08.43 ,"1/0071635923.18138",    0,   44,  274896,"AIS","B1","B1","B0","B0","PISd",0,0,0,0,"B1", 0,15,   0, 0,    0,"AIS","N/A    ","OK ","OK ",    000758.030,    -040.802,    0063.899,    0015.671,    0047.966
"FRM_AIS_EDR_2012.DAT           ",2005-08-09T02:52:15.97 ,"1/0071635930.53737",    0,   45,  274896,"AIS","B1","B1","B0","B0","PISd",0,0,0,0,"B1", 0,15,   0, 0,    0,"AIS","N/A    ","OK ","OK ",    000749.538,    -040.406,    0063.909,    0015.674,    0047.986
"FRM_AIS_EDR_2012.DAT           ",2005-08-09T02:52:23.51 ,"1/0071635938.23800",    0,   46,  274896,"AIS","B1","B1","B0","B0","PISd",0,0,0,0,"B1", 0,15,   0, 0,    0,"AIS","N/A    ","OK ","OK ",    000741.104,    -040.008,    0063.918,    0015.677,    0048.009
"FRM_AIS_EDR_2012.DAT           ",2005-08-09T02:52:31.06 ,"1/0071635945.59400",    0,   47,  274896,"AIS","B1","B1","B0","B0","PISd",0,0,0,0,"B1", 0,15,   0, 0,    0,"AIS","N/A    ","OK ","OK ",    000732.727,    -039.610,    0063.928,    0015.679,    0048.035
"FRM_AIS_EDR_2012.DAT           ",2005-08-09T02:52:38.60 ,"1/0071635953.29463",    0,   48,  274896,"AIS","B1","B1","B0","B0","PISd",0,0,0,0,"B1", 0,15,   0, 0,    0,"AIS","N/A    ","OK ","OK ",    000724.408,    -039.209,    0063.937,    0015.682,    0048.063
"FRM_AIS_EDR_2012.DAT           ",2005-08-09T02:52:46.14 ,"1/0071635960.65062",    0,   49,  274896,"AIS","B1","B1","B0","B0","PISd",0,0,0,0,"B1", 0,15,   0, 0,    0,"AIS","N/A    ","OK ","OK ",    000716.147,    -038.807,    0063.945,    0015.685,    0048.094
"FRM_AIS_EDR_2012.DAT           ",2005-08-09T02:52:53.69 ,"1/0071635968.35126",    0,   50,  274896,"AIS","B1","B1","B0","B0","PISd",0,0,0,0,"B1", 0,15,   0, 0,    0,"AIS","N/A    ","OK ","OK ",    000707.947,    -038.403,    0063.954,    0015.687,    0048.128
"FRM_AIS_EDR_2012.DAT           ",2005-08-09T02:53:01.23 ,"1/0071635976.05189",    0,   51,  274896,"AIS","B1","B1","B0","B0","PISd",0,0,0,0,"B1", 0,15,   0, 0,    0,"AIS","N/A    ","OK ","OK ",    000699.806,    -037.997,    0063.962,    0015.690,    0048.164
"FRM_AIS_EDR_2012.DAT           ",2005-08-09T02:53:08.77 ,"1/0071635983.40788",    0,   52,  274896,"AIS","B1","B1","B0","B0","PISd",0,0,0,0,"B1", 0,15,   0, 0,    0,"AIS","N/A    ","OK ","OK ",    000691.727,    -037.590,    0063.970,    0015.693,    0048.203
"FRM_AIS_EDR_2012.DAT           ",2005-08-09T02:53:16.32 ,"1/0071635991.10852",    0,   53,  274896,"AIS","B1","B1","B0","B0","PISd",0,0,0,0,"B1", 0,15,   0, 0,    0,"AIS","N/A    ","OK ","OK ",    000683.708,    -037.182,    0063.977,    0015.695,    0048.245
"FRM_AIS_EDR_2012.DAT           ",2005-08-09T02:53:23.86 ,"1/0071635998.46451",    0,   54,  274896,"AIS","B1","B1","B0","B0","PISd",0,0,0,0,"B1", 0,15,   0, 0,    0,"AIS","N/A    ","OK ","OK ",    000675.753,    -036.772,    0063.985,    0015.697,    0048.290
"FRM_AIS_EDR_2012.DAT           ",2005-08-09T02:53:31.40 ,"1/0071636006.16514",    0,   55,  274896,"AIS","B1","B1","B0","B0","PISd",0,0,0,0,"B1", 0,15,   0, 0,    0,"AIS","N/A    ","OK ","OK ",    000667.859,    -036.360,    0063.992,    0015.700,    0048.337
"FRM_AIS_EDR_2012.DAT           ",2005-08-09T02:53:38.95 ,"1/0071636013.52114",    0,   56,  274896,"AIS","B1","B1","B0","B0","PISd",0,0,0,0,"B1", 0,15,   0, 0,    0,"AIS","N/A    ","OK ","OK ",    000660.030,    -035.946,    0063.999,    0015.703,    0048.387
"FRM_AIS_EDR_2012.DAT           ",2005-08-09T02:53:46.49 ,"1/0071636021.22177",    0,   57,  274896,"AIS","B1","B1","B0","B0","PISd",0,0,0,0,"B1", 0,15,   0, 0,    0,"AIS","N/A    ","OK ","OK ",    000652.264,    -035.532,    0064.005,    0015.705,    0048.440
"FRM_AIS_EDR_2012.DAT           ",2005-08-09T02:53:54.03 ,"1/0071636028.57776",    0,   58,  274896,"AIS","B1","B1","B0","B0","PISd",0,0,0,0,"B1", 0,15,   0, 0,    0,"AIS","N/A    ","OK ","OK ",    000644.564,    -035.115,    0064.012,    0015.707,    0048.496
"FRM_AIS_EDR_2012.DAT           ",2005-08-09T02:54:01.58 ,"1/0071636036.27840",    0,   59,  274896,"AIS","B1","B1","B0","B0","PISd",0,0,0,0,"B1", 0,15,   0, 0,    0,"AIS","N/A    ","OK ","OK ",    000636.929,    -034.697,    0064.018,    0015.710,    0048.555
"FRM_AIS_EDR_2012.DAT           ",2005-08-09T02:54:09.12 ,"1/0071636043.63439",    0,   60,  274896,"AIS","B1","B1","B0","B0","PISd",0,0,0,0,"B1", 0,15,   0, 0,    0,"AIS","N/A    ","OK ","OK ",    000629.360,    -034.277,    0064.024,    0015.712,    0048.617
"FRM_AIS_EDR_2012.DAT           ",2005-08-09T02:54:16.66 ,"1/0071636051.33502",    0,   61,  274896,"AIS","B1","B1","B0","B0","PISd",0,0,0,0,"B1", 0,15,   0, 0,    0,"AIS","N/A    ","OK ","OK ",    000621.859,    -033.856,    0064.029,    0015.715,    0048.682
"FRM_AIS_EDR_2012.DAT           ",2005-08-09T02:54:24.20 ,"1/0071636059.03566",    0,   62,  274896,"AIS","B1","B1","B0","B0","PISd",0,0,0,0,"B1", 0,15,   0, 0,    0,"AIS","N/A    ","OK ","OK ",    000614.424,    -033.433,    0064.035,    0015.717,    0048.749
"FRM_AIS_EDR_2012.DAT           ",2005-08-09T02:54:31.75 ,"1/0071636066.39165",    0,   63,  274896,"AIS","B1","B1","B0","B0","PISd",0,0,0,0,"B1", 0,15,   0, 0,    0,"AIS","N/A    ","OK ","OK ",    000607.059,    -033.009,    0064.040,    0015.719,    0048.820
"FRM_AIS_EDR_2012.DAT           ",2005-08-09T02:54:39.29 ,"1/0071636074.09228",    0,   64,  274896,"AIS","B1","B1","B0","B0","PISd",0,0,0,0,"B1", 0,15,   0, 0,    0,"AIS","N/A    ","OK ","OK ",    000599.762,    -032.583,    0064.045,    0015.722,    0048.894
"FRM_AIS_EDR_2012.DAT           ",2005-08-09T02:54:46.83 ,"1/0071636081.44828",    0,   65,  274896,"AIS","B1","B1","B0","B0","PISd",0,0,0,0,"B1", 0,15,   0, 0,    0,"AIS","N/A    ","OK ","OK ",    000592.535,    -032.155,    0064.050,    0015.724,    0048.970
"FRM_AIS_EDR_2012.DAT           ",2005-08-09T02:54:54.38 ,"1/0071636089.14891",    0,   66,  274896,"AIS","B1","B1","B0","B0","PISd",0,0,0,0,"B1", 0,15,   0, 0,    0,"AIS","N/A    ","OK ","OK ",    000585.378,    -031.726,    0064.054,    0015.727,    0049.050
"FRM_AIS_EDR_2012.DAT           ",2005-08-09T02:55:01.92 ,"1/0071636096.50490",    0,   67,  274896,"AIS","B1","B1","B0","B0","PISd",0,0,0,0,"B1", 0,15,   0, 0,    0,"AIS","N/A    ","OK ","OK ",    000578.292,    -031.296,    0064.059,    0015.729,    0049.133
"FRM_AIS_EDR_2012.DAT           ",2005-08-09T02:55:09.46 ,"1/0071636104.20554",    0,   68,  274896,"AIS","B1","B1","B0","B0","PISd",0,0,0,0,"B1", 0,15,   0, 0,    0,"AIS","N/A    ","OK ","OK ",    000571.278,    -030.864,    0064.063,    0015.731,    0049.219
"FRM_AIS_EDR_2012.DAT           ",2005-08-09T02:55:17.01 ,"1/0071636111.56153",    0,   69,  274896,"AIS","B1","B1","B0","B0","PISd",0,0,0,0,"B1", 0,15,   0, 0,    0,"AIS","N/A    ","OK ","OK ",    000564.337,    -030.430,    0064.067,    0015.734,    0049.308
"FRM_AIS_EDR_2012.DAT           ",2005-08-09T02:55:24.55 ,"1/0071636119.26216",    0,   70,  274896,"AIS","B1","B1","B0","B0","PISd",0,0,0,0,"B1", 0,15,   0, 0,    0,"AIS","N/A    ","OK ","OK ",    000557.468,    -029.995,    0064.071,    0015.736,    0049.399
"FRM_AIS_EDR_2012.DAT           ",2005-08-09T02:55:32.09 ,"1/0071636126.61815",    0,   71,  274896,"AIS","B1","B1","B0","B0","PISd",0,0,0,0,"B1", 0,15,   0, 0,    0,"AIS","N/A    ","OK ","OK ",    000550.674,    -029.559,    0064.074,    0015.738,    0049.494
"FRM_AIS_EDR_2012.DAT           ",2005-08-09T02:55:39.64 ,"1/0071636134.31879",    0,   72,  274896,"AIS","B1","B1","B0","B0","PISd",0,0,0,0,"B1", 0,15,   0, 0,    0,"AIS","N/A    ","OK ","OK ",    000543.953,    -029.121,    0064.078,    0015.740,    0049.593
"FRM_AIS_EDR_2012.DAT           ",2005-08-09T02:55:47.18 ,"1/0071636142.01942",    0,   73,  274896,"AIS","B1","B1","B0","B0","PISd",0,0,0,0,"B1", 0,15,   0, 0,    0,"AIS","N/A    ","OK ","OK ",    000537.308,    -028.681,    0064.081,    0015.742,    0049.694
"FRM_AIS_EDR_2012.DAT           ",2005-08-09T02:55:54.72 ,"1/0071636149.37541",    0,   74,  274896,"AIS","B1","B1","B0","B0","PISd",0,0,0,0,"B1", 0,15,   0, 0,    0,"AIS","N/A    ","OK ","OK ",    000530.739,    -028.240,    0064.084,    0015.745,    0049.798
"FRM_AIS_EDR_2012.DAT           ",2005-08-09T02:56:02.27 ,"1/0071636157.07605",    0,   75,  274896,"AIS","B1","B1","B0","B0","PISd",0,0,0,0,"B1", 0,15,   0, 0,    0,"AIS","N/A    ","OK ","OK ",    000524.246,    -027.798,    0064.087,    0015.747,    0049.906
"FRM_AIS_EDR_2012.DAT           ",2005-08-09T02:56:09.81 ,"1/0071636164.43204",    0,   76,  274896,"AIS","B1","B1","B0","B0","PISd",0,0,0,0,"B1", 0,15,   0, 0,    0,"AIS","N/A    ","OK ","OK ",    000517.831,    -027.354,    0064.090,    0015.749,    0050.016
"FRM_AIS_EDR_2012.DAT           ",2005-08-09T02:56:17.35 ,"1/0071636172.13267",    0,   77,  274896,"AIS","B1","B1","B0","B0","PISd",0,0,0,0,"B1", 0,15,   0, 0,    0,"AIS","N/A    ","OK ","OK ",    000511.493,    -026.909,    0064.092,    0015.751,    0050.130
"FRM_AIS_EDR_2012.DAT           ",2005-08-09T02:56:24.90 ,"1/0071636179.48867",    0,   78,  274896,"AIS","B1","B1","B0","B0","PISd",0,0,0,0,"B1", 0,15,   0, 0,    0,"AIS","N/A    ","OK ","OK ",    000505.233,    -026.462,    0064.095,    0015.754,    0050.247
"FRM_AIS_EDR_2012.DAT           ",2005-08-09T02:56:32.44 ,"1/0071636187.18930",    0,   79,  274896,"AIS","B1","B1","B0","B0","PISd",0,0,0,0,"B1", 0,15,   0, 0,    0,"AIS","N/A    ","OK ","OK ",    000499.053,    -026.014,    0064.097,    0015.756,    0050.367
"FRM_AIS_EDR_2012.DAT           ",2005-08-09T02:56:39.98 ,"1/0071636194.54529",    0,   80,  274896,"AIS","B1","B1","B0","B0","PISd",0,0,0,0,"B1", 0,15,   0, 0,    0,"AIS","N/A    ","OK ","OK ",    000492.953,    -025.565,    0064.099,    0015.758,    0050.490
"FRM_AIS_EDR_2012.DAT           ",2005-08-09T02:56:47.53 ,"1/0071636202.24593",    0,   81,  274896,"AIS","B1","B1","B0","B0","PISd",0,0,0,0,"B1", 0,15,   0, 0,    0,"AIS","N/A    ","OK ","OK ",    000486.933,    -025.114,    0064.101,    0015.760,    0050.616
"FRM_AIS_EDR_2012.DAT           ",2005-08-09T02:56:55.07 ,"1/0071636209.60192",    0,   82,  274896,"AIS","B1","B1","B0","B0","PISd",0,0,0,0,"B1", 0,15,   0, 0,    0,"AIS","N/A    ","OK ","OK ",    000480.994,    -024.662,    0064.103,    0015.762,    0050.746
"FRM_AIS_EDR_2012.DAT           ",2005-08-09T02:57:02.61 ,"1/0071636217.30255",    0,   83,  274896,"AIS","B1","B1","B0","B0","PISd",0,0,0,0,"B1", 0,15,   0, 0,    0,"AIS","N/A    ","OK ","OK ",    000475.137,    -024.208,    0064.104,    0015.764,    0050.878
"FRM_AIS_EDR_2012.DAT           ",2005-08-09T02:57:10.16 ,"1/0071636225.00319",    0,   84,  274896,"AIS","B1","B1","B0","B0","PISd",0,0,0,0,"B1", 0,15,   0, 0,    0,"AIS","N/A    ","OK ","OK ",    000469.363,    -023.753,    0064.106,    0015.767,    0051.014
"FRM_AIS_EDR_2012.DAT           ",2005-08-09T02:57:17.70 ,"1/0071636232.35918",    0,   85,  274896,"AIS","B1","B1","B0","B0","PISd",0,0,0,0,"B1", 0,15,   0, 0,    0,"AIS","N/A    ","OK ","OK ",    000463.671,    -023.297,    0064.107,    0015.769,    0051.153
"FRM_AIS_EDR_2012.DAT           ",2005-08-09T02:57:25.24 ,"1/0071636240.05981",    0,   86,  274896,"AIS","B1","B1","B0","B0","PISd",0,0,0,0,"B1", 0,15,   0, 0,    0,"AIS","N/A    ","OK ","OK ",    000458.064,    -022.839,    0064.109,    0015.771,    0051.295
"FRM_AIS_EDR_2012.DAT           ",2005-08-09T02:57:32.78 ,"1/0071636247.41581",    0,   87,  274896,"AIS","B1","B1","B0","B0","PISd",0,0,0,0,"B1", 0,15,   0, 0,    0,"AIS","N/A    ","OK ","OK ",    000452.540,    -022.380,    0064.110,    0015.773,    0051.440
"FRM_AIS_EDR_2012.DAT           ",2005-08-09T02:57:40.33 ,"1/0071636255.11644",    0,   88,  274896,"AIS","B1","B1","B0","B0","PISd",0,0,0,0,"B1", 0,15,   0, 0,    0,"AIS","N/A    ","OK ","OK ",    000447.102,    -021.920,    0064.111,    0015.775,    0051.589
"FRM_AIS_EDR_2012.DAT           ",2005-08-09T02:57:47.87 ,"1/0071636262.47243",    0,   89,  274896,"AIS","B1","B1","B0","B0","PISd",0,0,0,0,"B1", 0,15,   0, 0,    0,"AIS","N/A    ","OK ","OK ",    000441.749,    -021.458,    0064.112,    0015.777,    0051.740
"FRM_AIS_EDR_2012.DAT           ",2005-08-09T02:57:55.41 ,"1/0071636270.17307",    0,   90,  274896,"AIS","B1","B1","B0","B0","PISd",0,0,0,0,"B1", 0,15,   0, 0,    0,"AIS","N/A    ","OK ","OK ",    000436.482,    -020.996,    0064.113,    0015.779,    0051.895